{"data":{"norad_id":43569,"intl_designator":"2018-061A","name":"IRIDIUM 160","alt_names":[],"object_type":"PAYLOAD","status":"ACTIVE","operator":null,"country":"US","launch_date":"2018-07-25","launch_site_code":"AFWTR","launch_vehicle":null,"mission":null,"orbit_class":"UNKNOWN","rcs_meters":null,"size_class":null,"mass_kg":null,"dimensions":null,"purposes":["comms"],"wikipedia_slug":null,"has_3d_model":false,"image_url":null,"decayed_at":null,"tle_current":{"epoch":"2026-09-20T02:02:30.284736Z","epoch_age_seconds":51246,"freshness":"FRESH","line1":"1 43569U 18061A   26263.08507274  .00000119  00000+0  35445-4 0  9990","line2":"2 43569  86.4010  17.1116 0002149  95.6569 264.4872 14.34218443426976","mean_motion":14.34218443,"eccentricity":0.0002149,"inclination_deg":86.401,"raan_deg":17.1116,"arg_perigee_deg":95.6569,"mean_anomaly_deg":264.4872,"bstar":3.5445e-5,"rev_number":42697,"period_min":100.40311551063,"perigee_km":776.12706746058,"apogee_km":779.2026310954,"semimajor_km":7155.801849278,"source":"CELESTRAK","updated_at":"2026-09-20T09:00:36.331670Z"}}}